This is the latest recevied weather packets stored in our database for station/object W6MAF. If no packets are shown the sender has not sent any weather packets the latest 10 day(s).
| Time | Temp. | Humidity | Pressure | Rain* | Wind** | Luminosity | Snow |
|---|---|---|---|---|---|---|---|
| 1788072877 | 20.56° C | 46% | - | 0 mm | 3.13 m/s, 191° | - | - |
| 1788072579 | 20.56° C | 46% | - | 0 mm | 2.68 m/s, 207° | - | - |
| 1788072281 | 20.56° C | 46% | - | 0 mm | 2.68 m/s, 225° | - | - |
| 1788071980 | 20.56° C | 45% | - | 0 mm | 1.79 m/s, 205° | - | - |
| 1788071683 | 20.56° C | 44% | - | 0 mm | 2.24 m/s, 231° | - | - |
| 1788071385 | 20.56° C | 43% | - | 0 mm | 2.68 m/s, 211° | - | - |
| 1788071087 | 21.11° C | 43% | - | 0 mm | 2.24 m/s, 235° | - | - |
| 1788070790 | 21.11° C | 43% | - | 0 mm | 1.34 m/s, 222° | - | - |
| 1788070492 | 21.11° C | 42% | - | 0 mm | 2.24 m/s, 270° | - | - |
| 1788070191 | 21.11° C | 41% | - | 0 mm | 1.79 m/s, 257° | - | - |
| 1788069893 | 21.11° C | 41% | - | 0 mm | 0 m/s | - | - |
| 1788069596 | 21.67° C | 41% | - | 0 mm | 0.89 m/s, 293° | - | - |
| 1788069298 | 21.67° C | 42% | - | 0 mm | 0 m/s | - | - |
| 1788069000 | 21.67° C | 42% | - | 0 mm | 0.89 m/s, 257° | - | - |
| 1788068702 | 21.67° C | 41% | - | 0 mm | 0 m/s | - | - |
| 1788068402 | 21.67° C | 41% | - | 0 mm | 0 m/s | - | - |
| 1788068104 | 22.22° C | 40% | - | 0 mm | 0 m/s | - | - |
| 1788067806 | 22.22° C | 40% | - | 0 mm | 0.89 m/s, 215° | - | - |
| 1788067508 | 22.22° C | 39% | - | 0 mm | 2.24 m/s, 201° | - | - |
| 1788067211 | 22.22° C | 38% | - | 0 mm | 2.24 m/s, 201° | - | - |
| 1788066913 | 22.22° C | 36% | - | 0 mm | 2.68 m/s, 212° | - | - |
| 1788066614 | 22.22° C | 34% | - | 0 mm | 2.68 m/s, 207° | - | - |
| 1788066613 | 22.22° C | 34% | - | 0 mm | 2.68 m/s, 207° | - | - |
| 1788066314 | 22.78° C | 32% | - | 0 mm | 2.68 m/s, 205° | - | - |
| 1788066017 | 22.78° C | 31% | - | 0 mm | 1.79 m/s, 208° | - | - |
* Rain latest hour (hover to see other rain measurements)
** Current wind speed in m/s (hover to see current wind gust speed)